TimeCDT,TemperatureF,Dew PointF,Humidity,Sea Level PressureIn,VisibilityMPH,Wind Direction,Wind SpeedMPH,Gust SpeedMPH,PrecipitationIn,Events,Conditions,WindDirDegrees,DateUTC
12:14 AM,24.8,23.0,93,29.87,4.0,NW,11.5,-,N/A,,Overcast,310,2013-03-10 06:14:00
12:35 AM,24.8,21.2,86,29.87,5.0,NW,11.5,-,N/A,,Overcast,310,2013-03-10 06:35:00
12:53 AM,23.0,21.2,93,29.87,5.0,NW,10.4,-,N/A,,Overcast,320,2013-03-10 06:53:00
1:11 AM,23.0,21.2,93,29.87,5.0,NNW,10.4,17.3,N/A,,Overcast,330,2013-03-10 07:11:00
1:35 AM,21.2,19.4,93,29.88,5.0,NW,13.8,-,N/A,,Overcast,320,2013-03-10 07:35:00
1:52 AM,21.2,19.4,93,29.88,5.0,NW,12.7,-,N/A,,Overcast,320,2013-03-10 07:52:00
3:15 AM,21.2,19.4,93,29.90,5.0,NNW,9.2,-,N/A,,Overcast,330,2013-03-10 08:15:00
3:35 AM,21.2,19.4,93,29.92,5.0,NNW,6.9,-,N/A,,Overcast,330,2013-03-10 08:35:00
3:52 AM,21.2,19.4,93,29.92,5.0,NNW,8.1,-,N/A,,Overcast,330,2013-03-10 08:52:00
4:15 AM,21.2,19.4,93,29.90,5.0,NNW,13.8,19.6,N/A,,Overcast,330,2013-03-10 09:15:00
4:35 AM,21.2,19.4,93,29.90,5.0,NNW,13.8,18.4,N/A,,Overcast,330,2013-03-10 09:35:00
4:42 AM,21.2,19.4,93,29.90,5.0,NNW,12.7,18.4,N/A,,Overcast,330,2013-03-10 09:42:00
5:01 AM,19.4,19.4,100,29.91,5.0,NNW,11.5,18.4,N/A,,Overcast,330,2013-03-10 10:01:00
5:41 AM,21.2,19.4,93,29.93,5.0,NNW,9.2,-,N/A,,Overcast,340,2013-03-10 10:41:00
6:01 AM,21.2,19.4,93,29.94,5.0,NNW,8.1,-,N/A,,Overcast,340,2013-03-10 11:01:00
6:41 AM,19.4,17.6,93,29.98,7.0,NNW,6.9,-,N/A,,Overcast,330,2013-03-10 11:41:00
7:01 AM,19.4,17.6,93,29.97,7.0,NNW,10.4,-,N/A,,Overcast,330,2013-03-10 12:01:00
8:05 AM,19.4,17.6,93,30.00,7.0,NNW,16.1,19.6,N/A,,Overcast,340,2013-03-10 13:05:00
8:15 AM,19.4,17.6,93,30.00,7.0,NNW,12.7,-,N/A,,Overcast,340,2013-03-10 13:15:00
8:35 AM,19.4,17.6,93,30.00,7.0,NNW,15.0,18.4,N/A,,Overcast,330,2013-03-10 13:35:00
8:52 AM,19.4,17.6,93,30.00,7.0,NNW,15.0,23.0,N/A,,Overcast,330,2013-03-10 13:52:00
9:14 AM,19.4,17.6,93,30.02,7.0,NNW,12.7,23.0,N/A,,Overcast,340,2013-03-10 14:14:00
9:35 AM,19.4,17.6,93,30.03,10.0,North,11.5,-,N/A,,Overcast,350,2013-03-10 14:35:00
9:53 AM,19.4,15.8,86,30.04,10.0,NNW,13.8,18.4,N/A,,Overcast,340,2013-03-10 14:53:00
10:14 AM,19.4,17.6,93,30.04,10.0,North,17.3,21.9,N/A,,Overcast,350,2013-03-10 15:14:00
10:35 AM,19.4,17.6,93,30.05,10.0,North,12.7,-,N/A,,Overcast,350,2013-03-10 15:35:00
10:53 AM,19.4,17.6,93,30.05,10.0,North,13.8,18.4,N/A,,Overcast,350,2013-03-10 15:53:00
11:15 AM,19.4,17.6,93,30.05,10.0,North,15.0,-,N/A,,Overcast,350,2013-03-10 16:15:00
11:34 AM,21.2,17.6,86,30.06,10.0,North,13.8,-,0.01,,Overcast,360,2013-03-10 16:34:00
11:53 AM,21.2,17.6,86,30.05,10.0,North,12.7,-,0.01,,Overcast,350,2013-03-10 16:53:00
12:15 PM,21.2,17.6,86,30.06,10.0,North,15.0,18.4,N/A,,Overcast,10,2013-03-10 17:15:00
12:35 PM,21.2,17.6,86,30.05,10.0,North,13.8,-,N/A,,Overcast,360,2013-03-10 17:35:00
12:52 PM,21.2,17.6,86,30.05,10.0,North,16.1,-,N/A,,Overcast,10,2013-03-10 17:52:00
1:14 PM,21.2,17.6,86,30.05,10.0,North,18.4,23.0,N/A,,Overcast,350,2013-03-10 18:14:00
1:35 PM,21.2,17.6,86,30.06,10.0,North,17.3,24.2,N/A,,Overcast,10,2013-03-10 18:35:00
1:53 PM,21.2,17.6,86,30.07,10.0,North,13.8,-,N/A,,Overcast,10,2013-03-10 18:53:00
2:15 PM,21.2,17.6,86,30.03,10.0,North,17.3,-,N/A,,Overcast,10,2013-03-10 19:15:00
2:34 PM,21.2,17.6,86,30.00,10.0,North,19.6,23.0,N/A,,Overcast,350,2013-03-10 19:34:00
2:52 PM,23.0,17.6,80,30.01,10.0,North,16.1,-,N/A,,Overcast,360,2013-03-10 19:52:00
3:15 PM,21.2,15.8,80,30.01,10.0,North,13.8,23.0,N/A,,Overcast,360,2013-03-10 20:15:00
3:35 PM,24.8,17.6,74,30.03,10.0,North,10.4,-,N/A,,Mostly Cloudy,360,2013-03-10 20:35:00
3:53 PM,24.8,17.6,74,30.05,10.0,North,12.7,-,N/A,,Mostly Cloudy,350,2013-03-10 20:53:00
4:14 PM,24.8,17.6,74,30.05,10.0,North,9.2,-,N/A,,Mostly Cloudy,10,2013-03-10 21:14:00
4:34 PM,24.8,17.6,74,30.03,10.0,North,12.7,-,N/A,,Scattered Clouds,360,2013-03-10 21:34:00
4:53 PM,24.8,17.6,74,30.02,10.0,North,12.7,-,N/A,,Clear,360,2013-03-10 21:53:00
5:15 PM,24.8,17.6,74,30.01,10.0,NNE,12.7,17.3,N/A,,Clear,20,2013-03-10 22:15:00
5:35 PM,24.8,17.6,74,30.00,10.0,NNE,10.4,-,N/A,,Clear,20,2013-03-10 22:35:00
5:52 PM,24.8,17.6,74,30.00,10.0,NNE,9.2,-,N/A,,Clear,20,2013-03-10 22:52:00
6:14 PM,24.8,15.8,69,30.00,10.0,NNE,11.5,17.3,N/A,,Clear,30,2013-03-10 23:14:00
6:35 PM,23.0,15.8,74,30.00,10.0,NNE,9.2,-,N/A,,Clear,30,2013-03-10 23:35:00
6:53 PM,23.0,15.8,74,30.02,10.0,NNE,6.9,-,N/A,,Clear,30,2013-03-10 23:53:00
7:15 PM,21.2,15.8,80,30.01,10.0,NNE,8.1,-,N/A,,Clear,30,2013-03-11 00:15:00
7:35 PM,21.2,15.8,80,30.00,10.0,North,8.1,-,N/A,,Clear,10,2013-03-11 00:35:00
7:52 PM,21.2,14.0,74,30.01,10.0,North,5.8,-,N/A,,Clear,10,2013-03-11 00:52:00
8:15 PM,19.4,12.2,74,30.01,10.0,North,5.8,-,N/A,,Clear,10,2013-03-11 01:15:00
8:35 PM,19.4,12.2,74,30.01,10.0,NNW,5.8,-,N/A,,Clear,330,2013-03-11 01:35:00
8:53 PM,19.4,12.2,74,30.01,10.0,North,6.9,-,N/A,,Clear,350,2013-03-11 01:53:00
9:14 PM,17.6,12.2,79,30.01,10.0,NNW,6.9,-,N/A,,Clear,330,2013-03-11 02:14:00
9:34 PM,17.6,12.2,79,30.01,10.0,NNW,8.1,-,N/A,,Clear,330,2013-03-11 02:34:00
10:15 PM,17.6,12.2,79,30.01,10.0,NNW,8.1,-,N/A,,Clear,340,2013-03-11 03:15:00
10:35 PM,15.8,10.4,79,30.01,10.0,NNW,8.1,-,N/A,,Clear,340,2013-03-11 03:35:00
10:53 PM,15.8,10.4,79,30.01,10.0,NNW,8.1,-,N/A,,Clear,340,2013-03-11 03:53:00
11:15 PM,15.8,8.6,73,30.00,10.0,North,9.2,-,N/A,,Clear,350,2013-03-11 04:15:00
11:34 PM,15.8,8.6,73,30.00,10.0,NNW,9.2,-,N/A,,Clear,340,2013-03-11 04:34:00
11:53 PM,14.0,8.6,79,29.99,10.0,North,9.2,-,N/A,,Clear,350,2013-03-11 04:53:00
12:15 AM,12.2,8.6,85,29.98,10.0,NNW,6.9,-,N/A,,Clear,340,2013-03-11 05:15:00
12:35 AM,10.4,6.8,85,29.98,10.0,NW,6.9,-,N/A,,Clear,320,2013-03-11 05:35:00
12:53 AM,8.6,6.8,92,29.98,10.0,NNW,5.8,-,N/A,,Clear,330,2013-03-11 05:53:00